Home > Weather > Bremen > Past weeks

Flag for Germany Weather for the Past 2 Weeks in Bremen, Bremen, Germany

Now
52 °F

Sunny.


Feels Like: 49 °F
Forecast: 55 / 72 °F
Wind: 9 mph from Southeast

Location: Bremen Airport

Current Time: May 6, 2016 at 8:11:47 AM

Latest Report: May 6, 2016 at 7:20 AM


Visibility: 10 mi

Pressure: 30.12 "Hg

Humidity: 72%

Dew Point: 43 °F

Location of BremenLocation

Historic Weather in Bremen — Graph

°F

Bremen Temperature Yesterday

Maximum temperature yesterday: 64 °F (at 3:50 PM)
Minimum temperature yesterday: 37 °F (at 3:50 AM)
Average temperature yesterday: 53 °F

High & Low Weather Summary for the Past Weeks

 TemperatureHumidityPressure
High66 °F (May 2, 2:50 PM)100% (Apr 21, 7:20 AM)30.42 "Hg (Apr 21, 7:20 AM)
Low28 °F (Apr 25, 2:20 AM)31% (May 5, 1:20 PM)29.36 "Hg (Apr 26, 12:20 PM)
Average45 °F76%30.00 "Hg
* Reported Apr 21 7:20 AM — May 6 7:20 AM, Bremen, Weather by CustomWeather, © 2016

Note: Actual official high and low records may vary slightly from our data, if they occured in-between our weather recording intervals... More about our weather records

Advertising

Bremen Weather History for the Previous 24 Hours

Scroll right to see more
 ConditionsComfort  
Time TempWeatherWind HumidityBarometerVisibility
7:20 AM
Fri, May 6
52 °FSunny.9 mph72%30.12 "Hg10 mi
6:20 AM50 °FClear.8 mph71%30.12 "Hg10 mi
5:50 AM48 °FClear.7 mph76%30.12 "Hg10 mi
5:20 AM46 °FClear.6 mph76%30.12 "Hg10 mi
4:50 AM48 °FClear.5 mph76%30.12 "Hg10 mi
4:20 AM46 °FClear.7 mph76%30.12 "Hg10 mi
3:50 AM46 °FClear.8 mph76%30.15 "Hg10 mi
3:20 AM46 °FClear.7 mph76%30.15 "Hg10 mi
2:50 AM48 °FClear.8 mph71%30.15 "Hg10 mi
2:20 AM48 °FClear.8 mph71%30.15 "Hg10 mi
1:50 AM50 °FClear.8 mph67%30.15 "Hg10 mi
1:20 AM50 °FClear.8 mph67%30.15 "Hg10 mi
12:50 AM52 °FClear.7 mph62%30.15 "Hg10 mi
12:20 AM52 °FClear.8 mph62%30.18 "Hg10 mi
11:50 PM
Thu, May 5
54 °FClear.8 mph58%30.18 "Hg10 mi
11:20 PM54 °FClear.9 mph63%30.18 "Hg10 mi
10:50 PM52 °FClear.9 mph62%30.18 "Hg10 mi
10:20 PM57 °FClear.7 mph51%30.18 "Hg10 mi
9:50 PM59 °FSunny.6 mph51%30.18 "Hg10 mi
9:20 PM59 °FSunny.5 mph48%30.18 "Hg10 mi
8:50 PM61 °FSunny.7 mph45%30.18 "Hg10 mi
8:20 PM63 °FSunny.7 mph42%30.18 "Hg10 mi
7:50 PM63 °FSunny.9 mph42%30.18 "Hg10 mi
7:20 PM64 °FSunny.9 mph37%30.21 "Hg10 mi
6:50 PM64 °FPassing clouds.10 mph34%30.21 "HgN/A
6:20 PM64 °FPassing clouds.9 mph34%30.21 "HgN/A
5:50 PM64 °FPassing clouds.9 mph34%30.24 "HgN/A
5:20 PM64 °FPassing clouds.8 mph34%30.24 "HgN/A
4:50 PM64 °FPassing clouds.9 mph34%30.24 "HgN/A
4:20 PM64 °FPassing clouds.9 mph37%30.27 "HgN/A
3:50 PM64 °FPassing clouds.9 mph43%30.27 "HgN/A
3:20 PM63 °FPassing clouds.10 mph39%30.27 "HgN/A
2:50 PM63 °FPassing clouds.6 mph39%30.30 "HgN/A
2:20 PM61 °FSunny.12 mph36%30.30 "Hg10 mi
1:50 PM61 °FPassing clouds.7 mph36%30.33 "HgN/A
1:20 PM61 °FPassing clouds.8 mph31%30.33 "HgN/A
12:50 PM59 °FPassing clouds.8 mph34%30.33 "HgN/A
12:20 PM59 °FPassing clouds.9 mph36%30.36 "HgN/A
11:50 AM59 °FPassing clouds.8 mph39%30.36 "HgN/A
11:20 AM57 °FPassing clouds.8 mph44%30.36 "HgN/A
10:50 AM57 °FPassing clouds.10 mph41%30.36 "HgN/A
10:20 AM57 °FPassing clouds.9 mph48%30.39 "HgN/A
9:50 AM55 °FSunny.9 mph47%30.39 "Hg10 mi
9:20 AM54 °FSunny.9 mph54%30.39 "Hg10 mi
8:50 AM52 °FSunny.7 mph58%30.39 "Hg10 mi
8:20 AM48 °FSunny.8 mph62%30.39 "Hg10 mi
Weather by CustomWeather, © 2016

See weather overviewHow to use our weather pages